QPF
0.12 0.10 0.08 0.07 0.07 0.06 0.06 0.07 0.07 0.06 0.06 0.05 0.04 0.02 0.02 0.02 0.02 0.02 0.01 0.01 0.00 0.00 0.00 0.00 0.00 0.00 0.00 0.00 0.00 0.00 0.00 0.00 0.01 0.01 0.01 0.02 0.04 0.06
0.08 0.08 0.09 0.07 0.07 0.05 0.05 0.05 0.07 0.06 0.06 0.04 0.03 0.02 0.02 0.02 0.04 0.03 0.02 0.03 0.01 0.01 0.00 0.00 0.00 0.00 0.00 0.00 0.00 0.01 0.02 0.02 0.02 0.02 0.03 0.04 0.05 0.06
0.05 0.06 0.06 0.08 0.08 0.07 0.05 0.05 0.06 0.06 0.05 0.04 0.03 0.04 0.05 0.04 0.04 0.04 0.03 0.03 0.02 0.03 0.02 0.01 0.01 0.00 0.00 0.00 0.00 0.01 0.03 0.05 0.06 0.06 0.05 0.05 0.05 0.06
0.07 0.08 0.07 0.07 0.07 0.07 0.06 0.04 0.05 0.05 0.04 0.05 0.05 0.06 0.06 0.06 0.05 0.05 0.03 0.02 0.01 0.03 0.03 0.02 0.01 0.00 0.00 0.00 0.00 0.00 0.01 0.02 0.03 0.04 0.05 0.06 0.05 0.06
0.09 0.10 0.09 0.08 0.07 0.06 0.05 0.04 0.04 0.04 0.05 0.05 0.05 0.06 0.05 0.05 0.04 0.03 0.02 0.02 0.01 0.01 0.02 0.01 0.01 0.02 0.01 0.01 0.01 0.01 0.00 0.01 0.01 0.01 0.02 0.04 0.04 0.04
0.09 0.10 0.10 0.10 0.09 0.07 0.05 0.05 0.05 0.05 0.06 0.06 0.06 0.06 0.06 0.05 0.04 0.03 0.02 0.02 0.01 0.00 0.01 0.01 0.01 0.01 0.01 0.01 0.01 0.01 0.01 0.01 0.01 0.01 0.01 0.02 0.04 0.03
0.10 0.10 0.08 0.08 0.08 0.07 0.05 0.04 0.05 0.05 0.05 0.07 0.08 0.07 0.06 0.06 0.04 0.04 0.03 0.03 0.02 0.01 0.01 0.01 0.01 0.01 0.02 0.02 0.01 0.01 0.01 0.01 0.01 0.01 0.01 0.02 0.03 0.05
0.08 0.07 0.05 0.05 0.05 0.06 0.06 0.06 0.06 0.05 0.05 0.06 0.06 0.06 0.05 0.05 0.05 0.05 0.04 0.04 0.03 0.02 0.03 0.02 0.01 0.02 0.02 0.02 0.01 0.01 0.01 0.01 0.01 0.02 0.01 0.01 0.03 0.05
0.05 0.05 0.05 0.06 0.07 0.07 0.07 0.07 0.06 0.04 0.03 0.04 0.05 0.04 0.04 0.04 0.05 0.05 0.05 0.05 0.05 0.03 0.04 0.04 0.04 0.03 0.03 0.03 0.03 0.02 0.02 0.01 0.01 0.01 0.01 0.01 0.02 0.05
0.04 0.03 0.03 0.04 0.05 0.05 0.05 0.04 0.03 0.02 0.02 0.03 0.03 0.03 0.03 0.04 0.05 0.05 0.05 0.06 0.05 0.04 0.04 0.06 0.06 0.06 0.05 0.03 0.03 0.02 0.02 0.01 0.02 0.02 0.02 0.01 0.01 0.02
0.03 0.03 0.03 0.03 0.03 0.03 0.04 0.03 0.02 0.02 0.02 0.02 0.01 0.02 0.02 0.03 0.03 0.04 0.05 0.06 0.05 0.04 0.04 0.05 0.05 0.05 0.04 0.02 0.02 0.01 0.01 0.02 0.02 0.02 0.02 0.02 0.02 0.02
0.04 0.03 0.04 0.03 0.03 0.02 0.03 0.04 0.03 0.02 0.03 0.03 0.02 0.01 0.01 0.02 0.02 0.03 0.04 0.05 0.05 0.05 0.04 0.04 0.05 0.05 0.04 0.03 0.02 0.02 0.02 0.02 0.03 0.02 0.02 0.02 0.02 0.03
0.03 0.03 0.03 0.03 0.03 0.02 0.01 0.02 0.02 0.01 0.02 0.03 0.03 0.02 0.02 0.02 0.02 0.02 0.02 0.03 0.04 0.04 0.03 0.04 0.05 0.05 0.04 0.03 0.03 0.03 0.02 0.02 0.02 0.02 0.02 0.02 0.02 0.02
0.03 0.03 0.03 0.03 0.03 0.02 0.02 0.01 0.01 0.02 0.02 0.03 0.03 0.02 0.03 0.03 0.03 0.03 0.03 0.04 0.04 0.04 0.04 0.05 0.06 0.06 0.06 0.04 0.03 0.02 0.02 0.02 0.02 0.02 0.02 0.02 0.02 0.02
0.03 0.03 0.03 0.03 0.03 0.02 0.02 0.02 0.01 0.01 0.02 0.02 0.02 0.02 0.03 0.04 0.04 0.05 0.05 0.05 0.05 0.05 0.04 0.05 0.05 0.05 0.06 0.04 0.03 0.03 0.03 0.03 0.03 0.04 0.03 0.03 0.03 0.04
0.04 0.04 0.04 0.04 0.04 0.04 0.03 0.03 0.02 0.02 0.02 0.02 0.01 0.02 0.02 0.03 0.04 0.04 0.05 0.05 0.05 0.04 0.04 0.04 0.04 0.04 0.04 0.04 0.04 0.03 0.04 0.04 0.04 0.05 0.05 0.05 0.05 0.04
0.03 0.04 0.05 0.05 0.05 0.04 0.03 0.02 0.02 0.02 0.01 0.01 0.02 0.02 0.03 0.03 0.04 0.04 0.05 0.05 0.04 0.04 0.04 0.04 0.04 0.04 0.04 0.04 0.04 0.03 0.04 0.04 0.03 0.03 0.05 0.05 0.06 0.06
0.02 0.03 0.04 0.04 0.04 0.04 0.03 0.03 0.04 0.04 0.04 0.03 0.03 0.03 0.04 0.05 0.05 0.05 0.05 0.06 0.04 0.04 0.04 0.05 0.04 0.04 0.04 0.04 0.04 0.04 0.04 0.05 0.04 0.04 0.04 0.06 0.07 0.07
0.02 0.02 0.02 0.03 0.04 0.04 0.04 0.04 0.03 0.03 0.03 0.03 0.04 0.04 0.04 0.04 0.04 0.03 0.04 0.04 0.04 0.04 0.05 0.05 0.04 0.04 0.04 0.03 0.04 0.04 0.04 0.04 0.04 0.03 0.03 0.03 0.03 0.04
0.02 0.01 0.02 0.02 0.03 0.04 0.04 0.04 0.03 0.03 0.03 0.03 0.03 0.02 0.02 0.03 0.03 0.03 0.03 0.04 0.04 0.05 0.05 0.05 0.04 0.04 0.04 0.03 0.03 0.03 0.04 0.03 0.03 0.03 0.03 0.02 0.02 0.02
0.03 0.02 0.02 0.03 0.03 0.03 0.03 0.03 0.03 0.03 0.04 0.05 0.05 0.04 0.03 0.03 0.03 0.04 0.04 0.04 0.04 0.04 0.04 0.04 0.04 0.04 0.04 0.04 0.04 0.04 0.04 0.05 0.03 0.02 0.02 0.02 0.02 0.02
0.04 0.04 0.03 0.03 0.04 0.04 0.03 0.03 0.04 0.03 0.03 0.04 0.04 0.04 0.04 0.03 0.04 0.04 0.04 0.04 0.05 0.04 0.04 0.04 0.04 0.05 0.06 0.05 0.04 0.04 0.03 0.03 0.02 0.01 0.01 0.01 0.02 0.02
0.04 0.04 0.04 0.03 0.03 0.03 0.04 0.04 0.05 0.04 0.04 0.04 0.04 0.04 0.05 0.05 0.05 0.04 0.04 0.04 0.04 0.04 0.04 0.04 0.05 0.06 0.06 0.05 0.04 0.03 0.03 0.03 0.02 0.02 0.02 0.02 0.02 0.01
MSLP
1008.42 1008.83 1009.39 1010.05 1010.77 1011.50 1012.21 1012.85 1013.39 1013.82 1014.13 1014.33 1014.44 1014.49 1014.51 1014.55 1014.64 1014.79 1015.02 1015.32 1015.68 1016.07 1016.44 1016.77 1017.04 1017.23 1017.35 1017.43 1017.48 1017.54 1017.65 1017.82 1018.07 1018.38 1018.73 1019.10 1019.45 1019.76
1008.09 1008.49 1009.03 1009.68 1010.39 1011.12 1011.82 1012.44 1012.97 1013.38 1013.67 1013.85 1013.95 1014.00 1014.05 1014.12 1014.26 1014.47 1014.77 1015.14 1015.56 1016.00 1016.41 1016.77 1017.06 1017.26 1017.38 1017.46 1017.52 1017.60 1017.72 1017.92 1018.18 1018.50 1018.86 1019.23 1019.56 1019.83
1007.82 1008.20 1008.72 1009.35 1010.05 1010.76 1011.44 1012.06 1012.57 1012.96 1013.24 1013.43 1013.54 1013.61 1013.69 1013.82 1014.02 1014.30 1014.67 1015.11 1015.58 1016.07 1016.51 1016.89 1017.19 1017.39 1017.52 1017.60 1017.66 1017.74 1017.87 1018.06 1018.33 1018.65 1019.00 1019.34 1019.64 1019.88
1007.62 1007.96 1008.45 1009.05 1009.73 1010.42 1011.09 1011.69 1012.19 1012.59 1012.88 1013.07 1013.21 1013.32 1013.45 1013.63 1013.89 1014.23 1014.66 1015.15 1015.67 1016.19 1016.65 1017.04 1017.34 1017.54 1017.67 1017.74 1017.79 1017.87 1018.00 1018.19 1018.44 1018.75 1019.08 1019.39 1019.66 1019.86
1007.47 1007.76 1008.21 1008.77 1009.41 1010.08 1010.72 1011.31 1011.82 1012.22 1012.52 1012.75 1012.92 1013.07 1013.25 1013.48 1013.79 1014.18 1014.65 1015.18 1015.72 1016.25 1016.72 1017.11 1017.41 1017.60 1017.72 1017.79 1017.84 1017.92 1018.04 1018.23 1018.47 1018.77 1019.08 1019.37 1019.62 1019.78
1007.33 1007.56 1007.95 1008.45 1009.04 1009.67 1010.29 1010.87 1011.37 1011.78 1012.11 1012.36 1012.57 1012.77 1012.99 1013.27 1013.62 1014.04 1014.53 1015.07 1015.62 1016.15 1016.61 1017.00 1017.28 1017.48 1017.60 1017.67 1017.73 1017.82 1017.96 1018.15 1018.41 1018.71 1019.01 1019.30 1019.54 1019.69
1007.17 1007.33 1007.64 1008.07 1008.60 1009.17 1009.75 1010.30 1010.79 1011.21 1011.56 1011.84 1012.09 1012.33 1012.59 1012.90 1013.28 1013.72 1014.22 1014.75 1015.29 1015.81 1016.26 1016.64 1016.92 1017.13 1017.26 1017.36 1017.46 1017.58 1017.75 1017.98 1018.26 1018.58 1018.91 1019.22 1019.46 1019.63
1006.95 1007.04 1007.27 1007.62 1008.07 1008.57 1009.09 1009.60 1010.07 1010.49 1010.85 1011.16 1011.44 1011.71 1012.00 1012.34 1012.73 1013.18 1013.68 1014.20 1014.73 1015.23 1015.67 1016.05 1016.34 1016.57 1016.74 1016.89 1017.04 1017.22 1017.44 1017.73 1018.06 1018.43 1018.80 1019.14 1019.42 1019.62
1006.67 1006.70 1006.85 1007.11 1007.47 1007.89 1008.35 1008.80 1009.24 1009.64 1010.00 1010.32 1010.63 1010.93 1011.25 1011.61 1012.01 1012.47 1012.96 1013.47 1013.98 1014.47 1014.91 1015.29 1015.61 1015.87 1016.10 1016.30 1016.53 1016.78 1017.08 1017.44 1017.83 1018.26 1018.68 1019.07 1019.40 1019.65
1006.36 1006.33 1006.41 1006.60 1006.87 1007.21 1007.59 1007.98 1008.37 1008.74 1009.09 1009.42 1009.74 1010.07 1010.42 1010.80 1011.22 1011.68 1012.16 1012.67 1013.16 1013.64 1014.08 1014.47 1014.82 1015.12 1015.41 1015.68 1015.98 1016.31 1016.69 1017.11 1017.57 1018.04 1018.51 1018.95 1019.32 1019.61
1006.02 1005.97 1006.01 1006.13 1006.33 1006.59 1006.89 1007.22 1007.56 1007.90 1008.23 1008.57 1008.90 1009.25 1009.62 1010.02 1010.45 1010.92 1011.40 1011.89 1012.38 1012.85 1013.28 1013.69 1014.06 1014.40 1014.74 1015.07 1015.43 1015.83 1016.26 1016.73 1017.23 1017.73 1018.23 1018.68 1019.08 1019.41
1005.67 1005.62 1005.64 1005.72 1005.87 1006.07 1006.31 1006.58 1006.87 1007.18 1007.50 1007.83 1008.18 1008.54 1008.94 1009.36 1009.80 1010.26 1010.74 1011.22 1011.69 1012.15 1012.58 1012.98 1013.37 1013.73 1014.10 1014.48 1014.87 1015.30 1015.76 1016.25 1016.75 1017.26 1017.74 1018.19 1018.58 1018.91
1005.29 1005.27 1005.30 1005.37 1005.48 1005.64 1005.83 1006.06 1006.31 1006.59 1006.90 1007.23 1007.59 1007.97 1008.38 1008.81 1009.26 1009.72 1010.19 1010.65 1011.10 1011.53 1011.94 1012.33 1012.72 1013.09 1013.47 1013.86 1014.27 1014.70 1015.16 1015.62 1016.10 1016.56 1017.01 1017.41 1017.77 1018.08
1004.87 1004.89 1004.94 1005.02 1005.12 1005.26 1005.42 1005.62 1005.85 1006.11 1006.41 1006.74 1007.10 1007.49 1007.91 1008.34 1008.79 1009.24 1009.68 1010.11 1010.53 1010.93 1011.31 1011.68 1012.04 1012.41 1012.78 1013.17 1013.57 1013.99 1014.42 1014.84 1015.26 1015.66 1016.04 1016.38 1016.68 1016.95
1004.38 1004.44 1004.52 1004.62 1004.73 1004.86 1005.02 1005.19 1005.41 1005.65 1005.94 1006.26 1006.62 1007.01 1007.42 1007.85 1008.27 1008.70 1009.11 1009.50 1009.88 1010.23 1010.58 1010.93 1011.28 1011.63 1012.00 1012.38 1012.77 1013.17 1013.56 1013.94 1014.30 1014.63 1014.93 1015.19 1015.43 1015.65
1003.84 1003.94 1004.04 1004.16 1004.28 1004.42 1004.56 1004.73 1004.92 1005.15 1005.42 1005.73 1006.07 1006.44 1006.83 1007.23 1007.63 1008.01 1008.38 1008.73 1009.06 1009.39 1009.71 1010.04 1010.38 1010.74 1011.12 1011.51 1011.90 1012.29 1012.67 1013.02 1013.33 1013.61 1013.84 1014.05 1014.23 1014.40
1003.32 1003.43 1003.55 1003.68 1003.81 1003.94 1004.07 1004.22 1004.39 1004.59 1004.83 1005.11 1005.41 1005.75 1006.10 1006.45 1006.80 1007.14 1007.46 1007.77 1008.07 1008.37 1008.68 1009.02 1009.38 1009.77 1010.18 1010.61 1011.05 1011.47 1011.87 1012.22 1012.53 1012.78 1012.98 1013.15 1013.30 1013.45
1002.94 1003.05 1003.17 1003.30 1003.42 1003.53 1003.63 1003.75 1003.88 1004.04 1004.23 1004.45 1004.70 1004.98 1005.27 1005.57 1005.86 1006.15 1006.42 1006.70 1006.98 1007.28 1007.60 1007.97 1008.38 1008.83 1009.32 1009.84 1010.35 1010.85 1011.31 1011.72 1012.06 1012.33 1012.54 1012.70 1012.84 1012.99
1002.86 1002.96 1003.06 1003.17 1003.26 1003.34 1003.40 1003.47 1003.54 1003.63 1003.75 1003.90 1004.08 1004.28 1004.50 1004.72 1004.96 1005.19 1005.43 1005.68 1005.96 1006.27 1006.63 1007.06 1007.55 1008.09 1008.69 1009.31 1009.94 1010.55 1011.11 1011.60 1012.02 1012.34 1012.60 1012.78 1012.94 1013.09
1003.23 1003.31 1003.39 1003.46 1003.51 1003.54 1003.54 1003.53 1003.53 1003.53 1003.56 1003.62 1003.71 1003.82 1003.96 1004.11 1004.28 1004.47 1004.68 1004.92 1005.20 1005.55 1005.96 1006.46 1007.04 1007.69 1008.40 1009.15 1009.90 1010.64 1011.31 1011.91 1012.42 1012.82 1013.13 1013.37 1013.55 1013.71
1004.13 1004.19 1004.24 1004.27 1004.27 1004.23 1004.16 1004.07 1003.97 1003.88 1003.81 1003.76 1003.75 1003.77 1003.83 1003.91 1004.02 1004.17 1004.35 1004.59 1004.89 1005.27 1005.74 1006.31 1006.97 1007.71 1008.53 1009.39 1010.26 1011.10 1011.88 1012.58 1013.17 1013.65 1014.02 1014.30 1014.51 1014.68
1005.54 1005.58 1005.60 1005.60 1005.54 1005.44 1005.29 1005.11 1004.92 1004.73 1004.55 1004.41 1004.30 1004.23 1004.21 1004.22 1004.29 1004.40 1004.56 1004.80 1005.11 1005.52 1006.02 1006.64 1007.36 1008.17 1009.05 1009.98 1010.92 1011.84 1012.69 1013.46 1014.11 1014.64 1015.05 1015.36 1015.58 1015.75
1007.31 1007.35 1007.36 1007.32 1007.22 1007.06 1006.84 1006.58 1006.30 1006.02 1005.75 1005.51 1005.32 1005.18 1005.08 1005.05 1005.07 1005.15 1005.30 1005.53 1005.84 1006.25 1006.77 1007.40 1008.13 1008.96 1009.86 1010.81 1011.77 1012.70 1013.57 1014.35 1015.03 1015.57 1016.00 1016.31 1016.53 1016.68
Thickness
5726 5725 5724 5724 5724 5724 5722 5719 5712 5706 5707 5712 5713 5716 5715 5713 5711 5708 5707 5705 5704 5702 5701 5699 5698 5697 5696 5694 5693 5691 5690 5689 5687 5685 5683 5682 5680 5679
5724 5722 5721 5721 5721 5722 5721 5719 5716 5710 5705 5710 5711 5713 5713 5711 5707 5706 5705 5703 5701 5700 5698 5697 5696 5694 5693 5691 5689 5688 5686 5684 5682 5680 5679 5677 5676 5675
5722 5720 5718 5718 5717 5718 5717 5715 5713 5710 5703 5706 5709 5710 5708 5706 5704 5703 5701 5700 5699 5697 5696 5694 5693 5691 5689 5688 5686 5684 5682 5679 5677 5676 5673 5672 5671 5669
5719 5717 5716 5715 5714 5713 5711 5710 5709 5708 5704 5701 5702 5703 5703 5703 5701 5700 5699 5698 5697 5695 5693 5692 5690 5688 5686 5684 5682 5680 5678 5675 5673 5671 5668 5667 5665 5664
5716 5714 5712 5711 5709 5708 5707 5706 5705 5705 5703 5700 5698 5699 5698 5698 5696 5696 5696 5695 5695 5693 5690 5688 5687 5684 5682 5680 5678 5675 5673 5670 5668 5666 5663 5661 5659 5658
5714 5712 5710 5707 5705 5704 5703 5701 5700 5699 5698 5696 5694 5693 5692 5693 5691 5689 5688 5689 5690 5690 5687 5685 5683 5680 5678 5676 5673 5671 5668 5665 5663 5660 5658 5655 5653 5652
5709 5707 5706 5704 5702 5700 5699 5696 5695 5693 5691 5689 5688 5686 5685 5684 5683 5684 5682 5683 5684 5685 5682 5680 5678 5675 5673 5671 5669 5666 5663 5661 5658 5655 5653 5650 5648 5646
5704 5703 5701 5699 5697 5695 5693 5692 5690 5688 5685 5682 5681 5679 5679 5679 5679 5678 5675 5673 5673 5677 5675 5674 5674 5671 5670 5667 5665 5662 5659 5656 5653 5650 5647 5644 5642 5640
5699 5698 5697 5695 5693 5690 5688 5686 5684 5683 5681 5679 5675 5674 5673 5673 5672 5670 5669 5668 5667 5671 5668 5666 5668 5665 5666 5663 5660 5657 5654 5651 5648 5644 5641 5639 5636 5634
5693 5692 5689 5687 5686 5683 5682 5679 5678 5677 5676 5674 5672 5670 5669 5668 5667 5665 5664 5663 5665 5666 5665 5659 5660 5659 5659 5656 5653 5651 5648 5645 5641 5638 5635 5632 5630 5628
5687 5685 5683 5680 5677 5675 5673 5671 5669 5669 5669 5668 5667 5665 5664 5663 5661 5659 5656 5654 5653 5655 5656 5653 5652 5651 5651 5648 5646 5643 5641 5637 5634 5631 5628 5626 5624 5622
5679 5677 5675 5673 5670 5667 5665 5663 5661 5662 5662 5661 5660 5659 5658 5657 5655 5652 5650 5647 5645 5645 5647 5645 5643 5641 5639 5641 5638 5635 5632 5629 5626 5624 5622 5619 5617 5614
5672 5670 5668 5665 5663 5660 5658 5657 5655 5654 5654 5654 5653 5653 5653 5652 5650 5648 5646 5643 5639 5637 5640 5637 5634 5632 5629 5629 5629 5628 5625 5622 5620 5617 5615 5613 5610 5608
5664 5663 5661 5658 5656 5654 5651 5651 5649 5648 5648 5648 5647 5647 5646 5645 5645 5643 5641 5639 5637 5635 5634 5631 5627 5624 5621 5619 5619 5620 5618 5616 5614 5611 5609 5607 5604 5602
5657 5655 5653 5651 5649 5647 5645 5643 5642 5641 5641 5640 5640 5640 5641 5641 5640 5638 5636 5634 5632 5630 5629 5626 5623 5620 5616 5613 5612 5611 5610 5609 5608 5605 5602 5600 5598 5596
5649 5648 5646 5644 5642 5640 5639 5638 5636 5635 5635 5634 5634 5634 5635 5634 5632 5631 5628 5626 5623 5622 5621 5620 5618 5614 5611 5609 5606 5604 5603 5602 5601 5599 5596 5594 5593 5591
5641 5640 5639 5638 5637 5636 5635 5634 5631 5629 5628 5627 5627 5626 5626 5626 5625 5624 5622 5619 5616 5614 5612 5612 5611 5608 5605 5602 5599 5598 5596 5595 5594 5593 5590 5588 5587 5586
5633 5634 5633 5633 5632 5631 5629 5627 5626 5624 5623 5621 5620 5618 5617 5616 5616 5615 5613 5610 5608 5607 5606 5604 5602 5598 5595 5594 5593 5591 5589 5588 5587 5586 5584 5581 5580 5580
5626 5628 5627 5627 5626 5625 5623 5621 5620 5617 5615 5614 5612 5611 5610 5609 5607 5606 5604 5602 5601 5600 5599 5597 5594 5589 5585 5584 5586 5584 5582 5581 5580 5578 5576 5575 5573 5573
5621 5621 5620 5620 5619 5618 5616 5614 5612 5610 5607 5606 5604 5603 5602 5600 5599 5597 5596 5594 5593 5592 5591 5589 5587 5584 5580 5578 5578 5577 5576 5574 5572 5570 5569 5568 5566 5565
5615 5614 5613 5612 5612 5610 5609 5607 5604 5602 5600 5599 5597 5595 5594 5592 5590 5589 5587 5586 5585 5583 5581 5580 5580 5579 5577 5573 5570 5570 5569 5568 5566 5563 5562 5560 5558 5557
5608 5607 5607 5606 5605 5603 5601 5599 5596 5594 5592 5591 5589 5587 5585 5584 5582 5581 5580 5579 5577 5576 5575 5573 5573 5571 5568 5565 5563 5562 5562 5561 5560 5558 5555 5554 5551 5550
5601 5601 5600 5599 5597 5595 5593 5591 5588 5586 5584 5582 5580 5579 5577 5575 5574 5573 5572 5571 5569 5568 5567 5565 5564 5562 5561 5559 5558 5557 5556 5554 5553 5551 5549 5548 5547 5545